Year,Month,Day,Hour,Minute,Value (Times are PST for temperature in C)
2015,05,18,00,00,13.90
2015,05,18,00,01,13.80
2015,05,18,00,02,13.80
2015,05,18,00,03,13.80
2015,05,18,00,04,13.80
2015,05,18,00,05,13.80
2015,05,18,00,06,13.80
2015,05,18,00,07,13.80
2015,05,18,00,08,13.80
2015,05,18,00,09,13.80
2015,05,18,00,10,13.80
2015,05,18,00,11,13.80
2015,05,18,00,12,13.80
2015,05,18,00,13,13.80
2015,05,18,00,14,13.80
2015,05,18,00,15,13.80
2015,05,18,00,16,13.80
2015,05,18,00,17,13.80
2015,05,18,00,18,13.80
2015,05,18,00,19,13.70
2015,05,18,00,20,13.70
2015,05,18,00,21,13.70
2015,05,18,00,22,13.70
2015,05,18,00,23,13.70
2015,05,18,00,24,13.70
2015,05,18,00,25,13.70
2015,05,18,00,26,13.70
2015,05,18,00,27,13.70
2015,05,18,00,28,13.70
2015,05,18,00,29,13.70
2015,05,18,00,30,13.70
2015,05,18,00,31,13.70
2015,05,18,00,32,13.60
2015,05,18,00,33,13.60
2015,05,18,00,34,13.60
2015,05,18,00,35,13.60
2015,05,18,00,36,13.60
2015,05,18,00,37,13.60
2015,05,18,00,38,13.50
2015,05,18,00,39,13.50
2015,05,18,00,40,13.50
2015,05,18,00,41,13.40
2015,05,18,00,42,13.40
2015,05,18,00,43,13.40
2015,05,18,00,44,13.40
2015,05,18,00,45,13.40
2015,05,18,00,46,13.40
2015,05,18,00,47,13.30
2015,05,18,00,48,13.30
2015,05,18,00,49,13.30
2015,05,18,00,50,13.30
2015,05,18,00,51,13.30
2015,05,18,00,52,13.30
2015,05,18,00,53,13.30
2015,05,18,00,54,13.30
2015,05,18,00,55,13.30
2015,05,18,00,56,13.30
2015,05,18,00,57,13.30
2015,05,18,00,58,13.30
2015,05,18,00,59,13.30
2015,05,18,01,00,13.30
2015,05,18,01,01,13.30
2015,05,18,01,02,13.30
2015,05,18,01,03,13.30
2015,05,18,01,04,13.30
2015,05,18,01,05,13.30
2015,05,18,01,06,13.30
2015,05,18,01,07,13.30
2015,05,18,01,08,13.30
2015,05,18,01,09,13.30
2015,05,18,01,10,13.30
2015,05,18,01,11,13.30
2015,05,18,01,12,13.30
2015,05,18,01,13,13.30
2015,05,18,01,14,13.30
2015,05,18,01,15,13.30
2015,05,18,01,16,13.30
2015,05,18,01,17,13.30
2015,05,18,01,18,13.30
2015,05,18,01,19,13.30
2015,05,18,01,20,13.30
2015,05,18,01,21,13.20
2015,05,18,01,22,13.20
2015,05,18,01,23,13.20
2015,05,18,01,24,13.20
2015,05,18,01,25,13.20
2015,05,18,01,26,13.20
2015,05,18,01,27,13.20
2015,05,18,01,28,13.20
2015,05,18,01,29,13.20
2015,05,18,01,30,13.20
2015,05,18,01,31,13.20
2015,05,18,01,32,13.20
2015,05,18,01,33,13.20
2015,05,18,01,34,13.20
2015,05,18,01,35,13.30
2015,05,18,01,36,13.30
2015,05,18,01,37,13.30
2015,05,18,01,38,13.30
2015,05,18,01,39,13.30
2015,05,18,01,40,13.30
2015,05,18,01,41,13.20
2015,05,18,01,42,13.20
2015,05,18,01,43,13.20
2015,05,18,01,44,13.20
2015,05,18,01,45,13.20
2015,05,18,01,46,13.20
2015,05,18,01,47,13.20
2015,05,18,01,48,13.10
2015,05,18,01,49,13.10
2015,05,18,01,50,13.10
2015,05,18,01,51,13.10
2015,05,18,01,52,13.10
2015,05,18,01,53,13.10
2015,05,18,01,54,13.10
2015,05,18,01,55,13.10
2015,05,18,01,56,13.10
2015,05,18,01,57,13.10
2015,05,18,01,58,13.10
2015,05,18,01,59,13.10
2015,05,18,02,00,13.10
2015,05,18,02,01,13.10
2015,05,18,02,02,13.10
2015,05,18,02,03,13.10
2015,05,18,02,04,13.00
2015,05,18,02,05,13.00
2015,05,18,02,06,13.00
2015,05,18,02,07,13.00
2015,05,18,02,08,12.90
2015,05,18,02,09,12.90
2015,05,18,02,10,12.90
2015,05,18,02,11,12.90
2015,05,18,02,12,12.90
2015,05,18,02,13,12.80
2015,05,18,02,14,12.80
2015,05,18,02,15,12.80
2015,05,18,02,16,12.80
2015,05,18,02,17,12.90
2015,05,18,02,18,12.90
2015,05,18,02,19,12.90
2015,05,18,02,20,12.90
2015,05,18,02,21,12.90
2015,05,18,02,22,12.90
2015,05,18,02,23,12.90
2015,05,18,02,24,12.90
2015,05,18,02,25,12.90
2015,05,18,02,26,12.90
2015,05,18,02,27,12.90
2015,05,18,02,28,12.90
2015,05,18,02,29,12.90
2015,05,18,02,30,12.90
2015,05,18,02,31,12.90
2015,05,18,02,32,13.00
2015,05,18,02,33,13.00
2015,05,18,02,34,13.00
2015,05,18,02,35,13.10
2015,05,18,02,36,13.10
2015,05,18,02,37,13.10
2015,05,18,02,38,13.10
2015,05,18,02,39,13.10
2015,05,18,02,40,13.10
2015,05,18,02,41,13.10
2015,05,18,02,42,13.10
2015,05,18,02,43,13.10
2015,05,18,02,44,13.00
2015,05,18,02,45,13.00
2015,05,18,02,46,13.00
2015,05,18,02,47,12.90
2015,05,18,02,48,12.90
2015,05,18,02,49,12.90
2015,05,18,02,50,12.90
2015,05,18,02,51,12.80
2015,05,18,02,52,12.80
2015,05,18,02,53,12.70
2015,05,18,02,54,12.70
2015,05,18,02,55,12.70
2015,05,18,02,56,12.60
2015,05,18,02,57,12.60
2015,05,18,02,58,12.50
2015,05,18,02,59,12.50
2015,05,18,03,00,12.40
2015,05,18,03,01,12.40
2015,05,18,03,02,12.40
2015,05,18,03,03,12.40
2015,05,18,03,04,12.30
2015,05,18,03,05,12.30
2015,05,18,03,06,12.30
2015,05,18,03,07,12.30
2015,05,18,03,08,12.30
2015,05,18,03,09,12.40
2015,05,18,03,10,12.40
2015,05,18,03,11,12.50
2015,05,18,03,12,12.50
2015,05,18,03,13,12.60
2015,05,18,03,14,12.60
2015,05,18,03,15,12.60
2015,05,18,03,16,12.60
2015,05,18,03,17,12.60
2015,05,18,03,18,12.70
2015,05,18,03,19,12.70
2015,05,18,03,20,12.70
2015,05,18,03,21,12.70
2015,05,18,03,22,12.70
2015,05,18,03,23,12.70
2015,05,18,03,24,12.70
2015,05,18,03,25,12.70
2015,05,18,03,26,12.70
2015,05,18,03,27,12.70
2015,05,18,03,28,12.70
2015,05,18,03,29,12.70
2015,05,18,03,30,12.70
2015,05,18,03,31,12.70
2015,05,18,03,32,12.70
2015,05,18,03,33,12.70
2015,05,18,03,34,12.80
2015,05,18,03,35,12.70
2015,05,18,03,36,12.70
2015,05,18,03,37,12.70
2015,05,18,03,38,12.70
2015,05,18,03,39,12.70
2015,05,18,03,40,12.70
2015,05,18,03,41,12.70
2015,05,18,03,42,12.70
2015,05,18,03,43,12.70
2015,05,18,03,44,12.70
2015,05,18,03,45,12.70
2015,05,18,03,46,12.70
2015,05,18,03,47,12.70
2015,05,18,03,48,12.70
2015,05,18,03,49,12.60
2015,05,18,03,50,12.60
2015,05,18,03,51,12.60
2015,05,18,03,52,12.60
2015,05,18,03,53,12.60
2015,05,18,03,54,12.60
2015,05,18,03,55,12.60
2015,05,18,03,56,12.60
2015,05,18,03,57,12.60
2015,05,18,03,58,12.60
2015,05,18,03,59,12.50
2015,05,18,04,00,12.50
2015,05,18,04,01,12.50
2015,05,18,04,02,12.40
2015,05,18,04,03,12.40
2015,05,18,04,04,12.40
2015,05,18,04,05,12.40
2015,05,18,04,06,12.40
2015,05,18,04,07,12.30
2015,05,18,04,08,12.30
2015,05,18,04,09,12.30
2015,05,18,04,10,12.30
2015,05,18,04,11,12.30
2015,05,18,04,12,12.30
2015,05,18,04,13,12.30
2015,05,18,04,14,12.30
2015,05,18,04,15,12.20
2015,05,18,04,16,12.20
2015,05,18,04,17,12.20
2015,05,18,04,18,12.20
2015,05,18,04,19,12.20
2015,05,18,04,20,12.20
2015,05,18,04,21,12.20
2015,05,18,04,22,12.20
2015,05,18,04,23,12.20
2015,05,18,04,24,12.20
2015,05,18,04,25,12.10
2015,05,18,04,26,12.10
2015,05,18,04,27,12.10
2015,05,18,04,28,12.10
2015,05,18,04,29,12.10
2015,05,18,04,30,12.10
2015,05,18,04,31,12.00
2015,05,18,04,32,12.00
2015,05,18,04,33,12.00
2015,05,18,04,34,11.90
2015,05,18,04,35,11.90
2015,05,18,04,36,11.90
2015,05,18,04,37,11.90
2015,05,18,04,38,11.90
2015,05,18,04,39,11.90
2015,05,18,04,40,11.90
2015,05,18,04,41,11.90
2015,05,18,04,42,11.90
2015,05,18,04,43,11.90
2015,05,18,04,44,12.00
2015,05,18,04,45,12.10
2015,05,18,04,46,12.10
2015,05,18,04,47,12.20
2015,05,18,04,48,12.20
2015,05,18,04,49,12.20
2015,05,18,04,50,12.20
2015,05,18,04,51,12.30
2015,05,18,04,52,12.30
2015,05,18,04,53,12.30
2015,05,18,04,54,12.30
2015,05,18,04,55,12.30
2015,05,18,04,56,12.30
2015,05,18,04,57,12.30
2015,05,18,04,58,12.30
2015,05,18,04,59,12.30
2015,05,18,05,00,12.30
2015,05,18,05,01,12.20
2015,05,18,05,02,12.20
2015,05,18,05,03,12.20
2015,05,18,05,04,12.20
2015,05,18,05,05,12.20
2015,05,18,05,06,12.10
2015,05,18,05,07,12.10
2015,05,18,05,08,12.10
2015,05,18,05,09,12.10
2015,05,18,05,10,12.10
2015,05,18,05,11,12.10
2015,05,18,05,12,12.00
2015,05,18,05,13,12.00
2015,05,18,05,14,12.00
2015,05,18,05,15,12.00
2015,05,18,05,16,12.00
2015,05,18,05,17,11.90
2015,05,18,05,18,11.90
2015,05,18,05,19,11.90
2015,05,18,05,20,11.90
2015,05,18,05,21,11.90
2015,05,18,05,22,11.90
2015,05,18,05,23,11.90
2015,05,18,05,24,11.90
2015,05,18,05,25,11.80
2015,05,18,05,26,11.80
2015,05,18,05,27,11.80
2015,05,18,05,28,11.80
2015,05,18,05,29,11.80
2015,05,18,05,30,11.80
2015,05,18,05,31,11.70
2015,05,18,05,32,11.70
2015,05,18,05,33,11.70
2015,05,18,05,34,11.70
2015,05,18,05,35,11.80
2015,05,18,05,36,11.80
2015,05,18,05,37,11.80
2015,05,18,05,38,11.70
2015,05,18,05,39,11.80
2015,05,18,05,40,11.80
2015,05,18,05,41,11.80
2015,05,18,05,42,11.80
2015,05,18,05,43,11.80
2015,05,18,05,44,11.80
2015,05,18,05,45,11.80
2015,05,18,05,46,11.80
2015,05,18,05,47,11.80
2015,05,18,05,48,11.80
2015,05,18,05,49,11.80
2015,05,18,05,50,11.80
2015,05,18,05,51,11.80
2015,05,18,05,52,11.80
2015,05,18,05,53,11.80
2015,05,18,05,54,11.80
2015,05,18,05,55,11.80
2015,05,18,05,56,11.80
2015,05,18,05,57,11.80
2015,05,18,05,58,11.80
2015,05,18,05,59,11.80
2015,05,18,06,00,11.80
2015,05,18,06,01,11.80
2015,05,18,06,02,11.80
2015,05,18,06,03,11.80
2015,05,18,06,04,11.80
2015,05,18,06,05,11.80
2015,05,18,06,06,11.80
2015,05,18,06,07,11.80
2015,05,18,06,08,11.80
2015,05,18,06,09,11.80
2015,05,18,06,10,11.80
2015,05,18,06,11,11.80
2015,05,18,06,12,11.80
2015,05,18,06,13,11.80
2015,05,18,06,14,11.70
2015,05,18,06,15,11.70
2015,05,18,06,16,11.70
2015,05,18,06,17,11.70
2015,05,18,06,18,11.70
2015,05,18,06,19,11.70
2015,05,18,06,20,11.70
2015,05,18,06,21,11.70
2015,05,18,06,22,11.70
2015,05,18,06,23,11.70
2015,05,18,06,24,11.70
2015,05,18,06,25,11.70
2015,05,18,06,26,11.70
2015,05,18,06,27,11.70
2015,05,18,06,28,11.70
2015,05,18,06,29,11.70
2015,05,18,06,30,11.70
2015,05,18,06,31,11.70
2015,05,18,06,32,11.70
2015,05,18,06,33,11.70
2015,05,18,06,34,11.70
2015,05,18,06,35,11.70
2015,05,18,06,36,11.70
2015,05,18,06,37,11.80
2015,05,18,06,38,11.80
2015,05,18,06,39,11.80
2015,05,18,06,40,11.80
2015,05,18,06,41,11.80
2015,05,18,06,42,11.80
2015,05,18,06,43,11.90
2015,05,18,06,44,11.90
2015,05,18,06,45,11.90
2015,05,18,06,46,11.90
2015,05,18,06,47,11.90
2015,05,18,06,48,12.00
2015,05,18,06,49,12.00
2015,05,18,06,50,12.00
2015,05,18,06,51,12.10
2015,05,18,06,52,12.10
2015,05,18,06,53,12.20
2015,05,18,06,54,12.30
2015,05,18,06,55,12.30
2015,05,18,06,56,12.40
2015,05,18,06,57,12.40
2015,05,18,06,58,12.50
2015,05,18,06,59,12.50
2015,05,18,07,00,12.60
2015,05,18,07,01,12.60
2015,05,18,07,02,12.60
2015,05,18,07,03,12.70
2015,05,18,07,04,12.70
2015,05,18,07,05,12.70
2015,05,18,07,06,12.70
2015,05,18,07,07,12.70
2015,05,18,07,08,12.70
2015,05,18,07,09,12.70
2015,05,18,07,10,12.70
2015,05,18,07,11,12.70
2015,05,18,07,12,12.70
2015,05,18,07,13,12.70
2015,05,18,07,14,12.70
2015,05,18,07,15,12.70
2015,05,18,07,16,12.70
2015,05,18,07,17,12.70
2015,05,18,07,18,12.70
2015,05,18,07,19,12.70
2015,05,18,07,20,12.70
2015,05,18,07,21,12.70
2015,05,18,07,22,12.70
2015,05,18,07,23,12.70
2015,05,18,07,24,12.80
2015,05,18,07,25,12.80
2015,05,18,07,26,12.80
2015,05,18,07,27,12.80
2015,05,18,07,28,12.80
2015,05,18,07,29,12.80
2015,05,18,07,30,12.90
2015,05,18,07,31,12.90
2015,05,18,07,32,12.90
2015,05,18,07,33,12.90
2015,05,18,07,34,13.00
2015,05,18,07,35,13.00
2015,05,18,07,36,13.00
2015,05,18,07,37,13.10
2015,05,18,07,38,13.10
2015,05,18,07,39,13.10
2015,05,18,07,40,13.10
2015,05,18,07,41,13.20
2015,05,18,07,42,13.20
2015,05,18,07,43,13.20
2015,05,18,07,44,13.20
2015,05,18,07,45,13.30
2015,05,18,07,46,13.30
2015,05,18,07,47,13.30
2015,05,18,07,48,13.30
2015,05,18,07,49,13.30
2015,05,18,07,50,13.40
2015,05,18,07,51,13.30
2015,05,18,07,52,13.30
2015,05,18,07,53,13.30
2015,05,18,07,54,13.20
2015,05,18,07,55,13.20
2015,05,18,07,56,13.20
2015,05,18,07,57,13.20
2015,05,18,07,58,13.20
2015,05,18,07,59,13.20
2015,05,18,08,00,13.20
2015,05,18,08,01,13.20
2015,05,18,08,02,13.10
2015,05,18,08,03,13.10
2015,05,18,08,04,13.10
2015,05,18,08,05,13.10
2015,05,18,08,06,13.10
2015,05,18,08,07,13.10
2015,05,18,08,08,13.10
2015,05,18,08,09,13.10
2015,05,18,08,10,13.10
2015,05,18,08,11,13.10
2015,05,18,08,12,13.10
2015,05,18,08,13,13.20
2015,05,18,08,14,13.20
2015,05,18,08,15,13.20
2015,05,18,08,16,13.30
2015,05,18,08,17,13.40
2015,05,18,08,18,13.40
2015,05,18,08,19,13.50
2015,05,18,08,20,13.60
2015,05,18,08,21,13.70
2015,05,18,08,22,13.80
2015,05,18,08,23,13.90
2015,05,18,08,24,14.00
2015,05,18,08,25,14.00
2015,05,18,08,26,14.10
2015,05,18,08,27,14.10
2015,05,18,08,28,14.00
2015,05,18,08,29,14.00
2015,05,18,08,30,14.00
2015,05,18,08,31,13.90
2015,05,18,08,32,13.90
2015,05,18,08,33,14.00
2015,05,18,08,34,14.00
2015,05,18,08,35,14.00
2015,05,18,08,36,14.00
2015,05,18,08,37,14.00
2015,05,18,08,38,13.90
2015,05,18,08,39,13.90
2015,05,18,08,40,13.80
2015,05,18,08,41,13.80
2015,05,18,08,42,13.70
2015,05,18,08,43,13.80
2015,05,18,08,44,13.70
2015,05,18,08,45,13.70
2015,05,18,08,46,13.70
2015,05,18,08,47,13.60
2015,05,18,08,48,13.60
2015,05,18,08,49,13.60
2015,05,18,08,50,13.50
2015,05,18,08,51,13.50
2015,05,18,08,52,13.40
2015,05,18,08,53,13.40
2015,05,18,08,54,13.50
2015,05,18,08,55,13.50
2015,05,18,08,56,13.60
2015,05,18,08,57,13.70
2015,05,18,08,58,13.70
2015,05,18,08,59,13.80
2015,05,18,09,00,13.90
2015,05,18,09,01,14.00
2015,05,18,09,02,14.00
2015,05,18,09,03,14.10
2015,05,18,09,04,14.20
2015,05,18,09,05,14.20
2015,05,18,09,06,14.20
2015,05,18,09,07,14.30
2015,05,18,09,08,14.30
2015,05,18,09,09,14.30
2015,05,18,09,10,14.20
2015,05,18,09,11,14.20
2015,05,18,09,12,14.10
2015,05,18,09,13,14.10
2015,05,18,09,14,14.10
2015,05,18,09,15,14.10
2015,05,18,09,16,14.10
2015,05,18,09,17,14.10
2015,05,18,09,18,14.00
2015,05,18,09,19,14.00
2015,05,18,09,20,14.00
2015,05,18,09,21,14.10
2015,05,18,09,22,14.20
2015,05,18,09,23,14.20
2015,05,18,09,24,14.30
2015,05,18,09,25,14.30
2015,05,18,09,26,14.40
2015,05,18,09,27,14.50
2015,05,18,09,28,14.60
2015,05,18,09,29,14.70
2015,05,18,09,30,14.70
2015,05,18,09,31,14.70
2015,05,18,09,32,14.70
2015,05,18,09,33,14.70
2015,05,18,09,34,14.70
2015,05,18,09,35,14.70
2015,05,18,09,36,14.70
2015,05,18,09,37,14.70
2015,05,18,09,38,14.70
2015,05,18,09,39,14.80
2015,05,18,09,40,14.80
2015,05,18,09,41,14.80
2015,05,18,09,42,14.80
2015,05,18,09,43,14.80
2015,05,18,09,44,14.80
2015,05,18,09,45,14.80
2015,05,18,09,46,14.90
2015,05,18,09,47,14.90
2015,05,18,09,48,14.90
2015,05,18,09,49,14.90
2015,05,18,09,50,15.00
2015,05,18,09,51,15.00
2015,05,18,09,52,15.00
2015,05,18,09,53,15.10
2015,05,18,09,54,15.10
2015,05,18,09,55,15.20
2015,05,18,09,56,15.30
2015,05,18,09,57,15.40
2015,05,18,09,58,15.50
2015,05,18,09,59,15.60
2015,05,18,10,00,15.60
2015,05,18,10,01,15.70
2015,05,18,10,02,15.80
2015,05,18,10,03,15.90
2015,05,18,10,04,16.00
2015,05,18,10,05,16.10
2015,05,18,10,06,16.20
2015,05,18,10,07,16.20
2015,05,18,10,08,16.30
2015,05,18,10,09,16.30
2015,05,18,10,10,16.30
2015,05,18,10,11,16.30
2015,05,18,10,12,16.30
2015,05,18,10,13,16.30
2015,05,18,10,14,16.30
2015,05,18,10,15,16.30
2015,05,18,10,16,16.30
2015,05,18,10,17,16.30
2015,05,18,10,18,16.20
2015,05,18,10,19,16.20
2015,05,18,10,20,16.30
2015,05,18,10,21,16.40
2015,05,18,10,22,16.50
2015,05,18,10,23,16.60
2015,05,18,10,24,16.70
2015,05,18,10,25,16.80
2015,05,18,10,26,16.80
2015,05,18,10,27,16.80
2015,05,18,10,28,16.80
2015,05,18,10,29,16.90
2015,05,18,10,30,16.90
2015,05,18,10,31,17.00
2015,05,18,10,32,17.00
2015,05,18,10,33,17.10
2015,05,18,10,34,17.20
2015,05,18,10,35,17.40
2015,05,18,10,36,17.50
2015,05,18,10,37,17.50
2015,05,18,10,38,17.60
2015,05,18,10,39,17.60
2015,05,18,10,40,17.60
2015,05,18,10,41,17.60
2015,05,18,10,42,17.70
2015,05,18,10,43,17.70
2015,05,18,10,44,17.70
2015,05,18,10,45,17.70
2015,05,18,10,46,17.70
2015,05,18,10,47,17.70
2015,05,18,10,48,17.80
2015,05,18,10,49,17.80
2015,05,18,10,50,17.90
2015,05,18,10,51,17.90
2015,05,18,10,52,17.90
2015,05,18,10,53,18.00
2015,05,18,10,54,18.00
2015,05,18,10,55,18.10
2015,05,18,10,56,18.10
2015,05,18,10,57,18.20
2015,05,18,10,58,18.20
2015,05,18,10,59,18.30
2015,05,18,11,00,18.30
2015,05,18,11,01,18.20
2015,05,18,11,02,18.10
2015,05,18,11,03,18.00
2015,05,18,11,04,17.90
2015,05,18,11,05,17.90
2015,05,18,11,06,17.90
2015,05,18,11,07,17.90
2015,05,18,11,08,17.90
2015,05,18,11,09,17.90
2015,05,18,11,10,17.90
2015,05,18,11,11,17.80
2015,05,18,11,12,17.80
2015,05,18,11,13,17.80
2015,05,18,11,14,17.80
2015,05,18,11,15,17.80
2015,05,18,11,16,17.80
2015,05,18,11,17,17.90
2015,05,18,11,18,18.00
2015,05,18,11,19,18.00
2015,05,18,11,20,18.10
2015,05,18,11,21,18.20
2015,05,18,11,22,18.40
2015,05,18,11,23,18.50
2015,05,18,11,24,18.70
2015,05,18,11,25,18.80
2015,05,18,11,26,18.90
2015,05,18,11,27,18.90
2015,05,18,11,28,19.00
2015,05,18,11,29,19.00
2015,05,18,11,30,19.00
2015,05,18,11,31,19.00
2015,05,18,11,32,19.00
2015,05,18,11,33,19.10
2015,05,18,11,34,19.10
2015,05,18,11,35,19.10
2015,05,18,11,36,19.20
2015,05,18,11,37,19.20
2015,05,18,11,38,19.30
2015,05,18,11,39,19.30
2015,05,18,11,40,19.40
2015,05,18,11,41,19.40
2015,05,18,11,42,19.40
2015,05,18,11,43,19.30
2015,05,18,11,44,19.30
2015,05,18,11,45,19.40
2015,05,18,11,46,19.40
2015,05,18,11,47,19.50
2015,05,18,11,48,19.60
2015,05,18,11,49,19.60
2015,05,18,11,50,19.60
2015,05,18,11,51,19.70
2015,05,18,11,52,19.70
2015,05,18,11,53,19.70
2015,05,18,11,54,19.80
2015,05,18,11,55,19.80
2015,05,18,11,56,19.80
2015,05,18,11,57,19.70
2015,05,18,11,58,19.80
2015,05,18,11,59,19.90
2015,05,18,12,00,20.00
2015,05,18,12,01,20.10
2015,05,18,12,02,20.10
2015,05,18,12,03,20.10
2015,05,18,12,04,20.10
2015,05,18,12,05,20.10
2015,05,18,12,06,20.10
2015,05,18,12,07,20.10
2015,05,18,12,08,20.20
2015,05,18,12,09,20.20
2015,05,18,12,10,20.20
2015,05,18,12,11,20.20
2015,05,18,12,12,20.20
2015,05,18,12,13,20.30
2015,05,18,12,14,20.30
2015,05,18,12,15,20.30
2015,05,18,12,16,20.30
2015,05,18,12,17,20.30
2015,05,18,12,18,20.20
2015,05,18,12,19,20.20
2015,05,18,12,20,20.20
2015,05,18,12,21,20.30
2015,05,18,12,22,20.30
2015,05,18,12,23,20.30
2015,05,18,12,24,20.30
2015,05,18,12,25,20.30
2015,05,18,12,26,20.40
2015,05,18,12,27,20.50
2015,05,18,12,28,20.50
2015,05,18,12,29,20.60
2015,05,18,12,30,20.60
2015,05,18,12,31,20.70
2015,05,18,12,32,20.70
2015,05,18,12,33,20.80
2015,05,18,12,34,20.80
2015,05,18,12,35,20.90
2015,05,18,12,36,20.90
2015,05,18,12,37,20.90
2015,05,18,12,38,20.90
2015,05,18,12,39,20.90
2015,05,18,12,40,20.90
2015,05,18,12,41,20.90
2015,05,18,12,42,20.90
2015,05,18,12,43,20.90
2015,05,18,12,44,20.90
2015,05,18,12,45,20.80
2015,05,18,12,46,20.70
2015,05,18,12,47,20.60
2015,05,18,12,48,20.60
2015,05,18,12,49,20.50
2015,05,18,12,50,20.40
2015,05,18,12,51,20.30
2015,05,18,12,52,20.20
2015,05,18,12,53,20.20
2015,05,18,12,54,20.20
2015,05,18,12,55,20.20
2015,05,18,12,56,20.20
2015,05,18,12,57,20.20
2015,05,18,12,58,20.20
2015,05,18,12,59,20.20
2015,05,18,13,00,20.20
2015,05,18,13,01,20.30
2015,05,18,13,02,20.20
2015,05,18,13,03,20.20
2015,05,18,13,04,20.10
2015,05,18,13,05,20.10
2015,05,18,13,06,20.10
2015,05,18,13,07,20.20
2015,05,18,13,08,20.10
2015,05,18,13,09,20.10
2015,05,18,13,10,20.00
2015,05,18,13,11,19.90
2015,05,18,13,12,19.80
2015,05,18,13,13,19.80
2015,05,18,13,14,19.80
2015,05,18,13,15,19.90
2015,05,18,13,16,20.00
2015,05,18,13,17,20.10
2015,05,18,13,18,20.10
2015,05,18,13,19,20.10
2015,05,18,13,20,20.10
2015,05,18,13,21,20.10
2015,05,18,13,22,20.10
2015,05,18,13,23,20.20
2015,05,18,13,24,20.20
2015,05,18,13,25,20.30
2015,05,18,13,26,20.40
2015,05,18,13,27,20.50
2015,05,18,13,28,20.60
2015,05,18,13,29,20.70
2015,05,18,13,30,20.70
2015,05,18,13,31,20.70
2015,05,18,13,32,20.70
2015,05,18,13,33,20.70
2015,05,18,13,34,20.70
2015,05,18,13,35,20.80
2015,05,18,13,36,20.80
2015,05,18,13,37,20.80
2015,05,18,13,38,20.90
2015,05,18,13,39,20.90
2015,05,18,13,40,21.00
2015,05,18,13,41,21.00
2015,05,18,13,42,21.00
2015,05,18,13,43,21.00
2015,05,18,13,44,21.00
2015,05,18,13,45,21.00
2015,05,18,13,46,21.00
2015,05,18,13,47,21.00
2015,05,18,13,48,21.10
2015,05,18,13,49,21.10
2015,05,18,13,50,21.10
2015,05,18,13,51,21.10
2015,05,18,13,52,21.20
2015,05,18,13,53,21.30
2015,05,18,13,54,21.40
2015,05,18,13,55,21.40
2015,05,18,13,56,21.40
2015,05,18,13,57,21.40
2015,05,18,13,58,21.50
2015,05,18,13,59,21.50
2015,05,18,14,00,21.50
2015,05,18,14,01,21.60
2015,05,18,14,02,21.50
2015,05,18,14,03,21.50
2015,05,18,14,04,21.40
2015,05,18,14,05,21.40
2015,05,18,14,06,21.30
2015,05,18,14,07,21.30
2015,05,18,14,08,21.30
2015,05,18,14,09,21.40
2015,05,18,14,10,21.50
2015,05,18,14,11,21.60
2015,05,18,14,12,21.70
2015,05,18,14,13,21.80
2015,05,18,14,14,21.80
2015,05,18,14,15,21.70
2015,05,18,14,16,21.70
2015,05,18,14,17,21.70
2015,05,18,14,18,21.60
2015,05,18,14,19,21.60
2015,05,18,14,20,21.60
2015,05,18,14,21,21.60
2015,05,18,14,22,21.70
2015,05,18,14,23,21.70
2015,05,18,14,24,21.70
2015,05,18,14,25,21.70
2015,05,18,14,26,21.70
2015,05,18,14,27,21.70
2015,05,18,14,28,21.80
2015,05,18,14,29,21.80
2015,05,18,14,30,21.70
2015,05,18,14,31,21.70
2015,05,18,14,32,21.80
2015,05,18,14,33,21.90
2015,05,18,14,34,22.00
2015,05,18,14,35,22.00
2015,05,18,14,36,22.10
2015,05,18,14,37,22.10
2015,05,18,14,38,22.10
2015,05,18,14,39,22.00
2015,05,18,14,40,22.00
2015,05,18,14,41,22.10
2015,05,18,14,42,22.10
2015,05,18,14,43,22.20
2015,05,18,14,44,22.20
2015,05,18,14,45,22.30
2015,05,18,14,46,22.40
2015,05,18,14,47,22.40
2015,05,18,14,48,22.40
2015,05,18,14,49,22.40
2015,05,18,14,50,22.30
2015,05,18,14,51,22.20
2015,05,18,14,52,22.20
2015,05,18,14,53,22.10
2015,05,18,14,54,22.00
2015,05,18,14,55,21.90
2015,05,18,14,56,21.70
2015,05,18,14,57,21.60
2015,05,18,14,58,21.50
2015,05,18,14,59,21.40
2015,05,18,15,00,21.40
2015,05,18,15,01,21.40
2015,05,18,15,02,21.40
2015,05,18,15,03,21.40
2015,05,18,15,04,21.50
2015,05,18,15,05,21.50
2015,05,18,15,06,21.60
2015,05,18,15,07,21.70
2015,05,18,15,08,21.70
2015,05,18,15,09,21.70
2015,05,18,15,10,21.70
2015,05,18,15,11,21.70
2015,05,18,15,12,21.60
2015,05,18,15,13,21.70
2015,05,18,15,14,21.70
2015,05,18,15,15,21.70
2015,05,18,15,16,21.70
2015,05,18,15,17,21.70
2015,05,18,15,18,21.60
2015,05,18,15,19,21.60
2015,05,18,15,20,21.50
2015,05,18,15,21,21.50
2015,05,18,15,22,21.40
2015,05,18,15,23,21.40
2015,05,18,15,24,21.40
2015,05,18,15,25,21.40
2015,05,18,15,26,21.40
2015,05,18,15,27,21.30
2015,05,18,15,28,21.30
2015,05,18,15,29,21.30
2015,05,18,15,30,21.30
2015,05,18,15,31,21.30
2015,05,18,15,32,21.30
2015,05,18,15,33,21.30
2015,05,18,15,34,21.30
2015,05,18,15,35,21.30
2015,05,18,15,36,21.30
2015,05,18,15,37,21.30
2015,05,18,15,38,21.30
2015,05,18,15,39,21.30
2015,05,18,15,40,21.30
2015,05,18,15,41,21.30
2015,05,18,15,42,21.30
2015,05,18,15,43,21.30
2015,05,18,15,44,21.30
2015,05,18,15,45,21.30
2015,05,18,15,46,21.30
2015,05,18,15,47,21.30
2015,05,18,15,48,21.30
2015,05,18,15,49,21.30
2015,05,18,15,50,21.30
2015,05,18,15,51,21.20
2015,05,18,15,52,21.20
2015,05,18,15,53,21.20
2015,05,18,15,54,21.10
2015,05,18,15,55,21.10
2015,05,18,15,56,21.10
2015,05,18,15,57,21.10
2015,05,18,15,58,21.10
2015,05,18,15,59,21.10
2015,05,18,16,00,21.10
2015,05,18,16,01,21.20
2015,05,18,16,02,21.20
2015,05,18,16,03,21.20
2015,05,18,16,04,21.20
2015,05,18,16,05,21.20
2015,05,18,16,06,21.20
2015,05,18,16,07,21.20
2015,05,18,16,08,21.30
2015,05,18,16,09,21.30
2015,05,18,16,10,21.30
2015,05,18,16,11,21.30
2015,05,18,16,12,21.30
2015,05,18,16,13,21.40
2015,05,18,16,14,21.40
2015,05,18,16,15,21.40
2015,05,18,16,16,21.40
2015,05,18,16,17,21.40
2015,05,18,16,18,21.40
2015,05,18,16,19,21.40
2015,05,18,16,20,21.40
2015,05,18,16,21,21.50
2015,05,18,16,22,21.50
2015,05,18,16,23,21.60
2015,05,18,16,24,21.70
2015,05,18,16,25,21.70
2015,05,18,16,26,21.80
2015,05,18,16,27,21.90
2015,05,18,16,28,21.90
2015,05,18,16,29,22.00
2015,05,18,16,30,22.00
2015,05,18,16,31,22.10
2015,05,18,16,32,22.10
2015,05,18,16,33,22.10
2015,05,18,16,34,22.10
2015,05,18,16,35,22.10
2015,05,18,16,36,22.00
2015,05,18,16,37,22.00
2015,05,18,16,38,21.90
2015,05,18,16,39,21.90
2015,05,18,16,40,21.90
2015,05,18,16,41,21.90
2015,05,18,16,42,21.90
2015,05,18,16,43,21.90
2015,05,18,16,44,21.90
2015,05,18,16,45,21.90
2015,05,18,16,46,22.00
2015,05,18,16,47,22.00
2015,05,18,16,48,22.10
2015,05,18,16,49,22.00
2015,05,18,16,50,22.00
2015,05,18,16,51,22.00
2015,05,18,16,52,22.00
2015,05,18,16,53,22.00
2015,05,18,16,54,22.00
2015,05,18,16,55,22.00
2015,05,18,16,56,22.00
2015,05,18,16,57,22.10
2015,05,18,16,58,22.10
2015,05,18,16,59,22.10
2015,05,18,17,00,22.10
2015,05,18,17,01,22.10
2015,05,18,17,02,22.00
2015,05,18,17,03,22.00
2015,05,18,17,04,22.00
2015,05,18,17,05,22.00
2015,05,18,17,06,22.00
2015,05,18,17,07,22.10
2015,05,18,17,08,22.10
2015,05,18,17,09,22.20
2015,05,18,17,10,22.20
2015,05,18,17,11,22.20
2015,05,18,17,12,22.20
2015,05,18,17,13,22.20
2015,05,18,17,14,22.20
2015,05,18,17,15,22.30
2015,05,18,17,16,22.30
2015,05,18,17,17,22.30
2015,05,18,17,18,22.30
2015,05,18,17,19,22.30